| time (UTC) | temp C | wind direction | speed KPH | gust KPH | rain 1hr cm | rain 24hr cm | rain mn cm | humidity % | barometer mb |
| 20260506201244 | 8 | 214 | 0.0 | 0.0 | 0.00 | 0.71 | 0.71 | 78 | 1012.9 |
| 20260506200244 | 8 | 214 | 0.0 | 1.6 | 0.00 | 0.71 | 0.71 | 77 | 1012.8 |
| 20260506195245 | 8 | 214 | 0.0 | 1.6 | 0.00 | 0.71 | 0.71 | 77 | 1012.5 |
| 20260506192243 | 8 | 214 | 3.2 | 6.4 | 0.00 | 0.71 | 0.71 | 76 | 1012.2 |
| 20260506191243 | 8 | 234 | 4.8 | 8.0 | 0.00 | 0.71 | 0.71 | 75 | 1012.1 |
| 20260506190240 | 9 | 239 | 4.8 | 12.9 | 0.00 | 0.71 | 0.71 | 74 | 1012.1 |
| 20260506185240 | 9 | 207 | 4.8 | 11.3 | 0.00 | 0.71 | 0.71 | 74 | 1012.1 |
| 20260506182238 | 10 | 215 | 4.8 | 11.3 | 0.00 | 0.71 | 0.71 | 72 | 1011.9 |
| 20260506180236 | 10 | 241 | 11.3 | 20.9 | 0.00 | 0.71 | 0.71 | 70 | 1011.6 |
| 20260506175237 | 10 | 244 | 12.9 | 19.3 | 0.00 | 0.71 | 0.71 | 69 | 1011.6 |
| 20260506174236 | 10 | 242 | 12.9 | 25.7 | 0.00 | 0.71 | 0.71 | 69 | 1011.7 |
| 20260506173236 | 10 | 242 | 16.1 | 25.7 | 0.00 | 0.71 | 0.71 | 68 | 1011.5 |
| 20260506172236 | 11 | 259 | 14.5 | 22.5 | 0.00 | 0.71 | 0.71 | 69 | 1011.5 |
| 20260506170235 | 11 | 273 | 11.3 | 24.1 | 0.00 | 0.71 | 0.71 | 71 | 1011.3 |
| 20260506164237 | 11 | 272 | 8.0 | 19.3 | 0.00 | 0.71 | 0.71 | 71 | 1011.2 |
| 20260506162236 | 11 | 272 | 14.5 | 22.5 | 0.00 | 0.71 | 0.71 | 69 | 1011.2 |
| 20260506161235 | 11 | 272 | 16.1 | 25.7 | 0.00 | 0.71 | 0.71 | 68 | 1011.3 |
| 20260506160252 | 11 | 265 | 12.9 | 24.1 | 0.00 | 0.71 | 0.71 | 74 | 1011.3 |
| 20260506155235 | 10 | 268 | 16.1 | 24.1 | 0.00 | 0.71 | 0.71 | 73 | 1011.3 |
| 20260506154236 | 10 | 270 | 12.9 | 20.9 | 0.00 | 0.71 | 0.71 | 73 | 1011.2 |
| 20260506152236 | 11 | 284 | 14.5 | 24.1 | 0.00 | 0.71 | 0.71 | 73 | 1011.2 |
| 20260506151237 | 10 | 262 | 12.9 | 22.5 | 0.00 | 0.71 | 0.71 | 75 | 1011.2 |
| 20260506150237 | 10 | 263 | 14.5 | 25.7 | 0.00 | 0.71 | 0.71 | 75 | 1011.3 |
| 20260506145236 | 10 | 254 | 14.5 | 25.7 | 0.00 | 0.71 | 0.71 | 77 | 1011.5 |
| 20260506144237 | 9 | 233 | 14.5 | 29.0 | 0.00 | 0.71 | 0.71 | 76 | 1011.5 |
| 20260506143236 | 9 | 253 | 12.9 | 19.3 | 0.00 | 0.71 | 0.71 | 77 | 1011.5 |
| 20260506140235 | 9 | 210 | 11.3 | 20.9 | 0.00 | 0.71 | 0.71 | 80 | 1011.2 |
| 20260506135233 | 8 | 229 | 9.7 | 20.9 | 0.00 | 0.71 | 0.71 | 80 | 1011.3 |
| 20260506133232 | 8 | 254 | 14.5 | 29.0 | 0.00 | 0.71 | 0.71 | 79 | 1011.4 |
| 20260506132232 | 8 | 238 | 16.1 | 32.2 | 0.00 | 0.71 | 0.71 | 78 | 1011.3 |
| 20260506131232 | 9 | 290 | 16.1 | 29.0 | 0.00 | 0.71 | 0.71 | 78 | 1011.2 |
| 20260506130232 | 9 | 257 | 11.3 | 20.9 | 0.00 | 0.71 | 0.71 | 78 | 1011.2 |
| 20260506125231 | 9 | 257 | 12.9 | 19.3 | 0.00 | 0.71 | 0.71 | 79 | 1011.2 |
| 20260506124230 | 8 | 244 | 11.3 | 22.5 | 0.00 | 0.71 | 0.71 | 79 | 1011.2 |
| 20260506123230 | 8 | 228 | 8.0 | 14.5 | 0.00 | 0.71 | 0.71 | 79 | 1011.0 |
| 20260506122230 | 8 | 236 | 9.7 | 19.3 | 0.00 | 0.71 | 0.71 | 79 | 1010.9 |
| 20260506121230 | 8 | 236 | 12.9 | 24.1 | 0.00 | 0.71 | 0.71 | 79 | 1010.8 |
| 20260506120224 | 8 | 244 | 16.1 | 27.4 | 0.05 | 0.71 | 0.71 | 80 | 1010.8 |
| 20260506115224 | 8 | 225 | 12.9 | 25.7 | 0.05 | 0.71 | 0.71 | 81 | 1010.7 |
| 20260506114223 | 8 | 266 | 14.5 | 29.0 | 0.05 | 0.71 | 0.71 | 82 | 1010.6 |
| 20260506113224 | 8 | 273 | 14.5 | 29.0 | 0.08 | 0.71 | 0.71 | 83 | 1010.6 |
| 20260506112224 | 8 | 248 | 16.1 | 32.2 | 0.13 | 0.71 | 0.71 | 83 | 1010.6 |
| 20260506111220 | 8 | 265 | 14.5 | 30.6 | 0.18 | 0.71 | 0.71 | 83 | 1010.4 |
| 20260506110221 | 8 | 265 | 16.1 | 25.7 | 0.20 | 0.66 | 0.66 | 83 | 1010.3 |
| 20260506103222 | 8 | 196 | 9.7 | 17.7 | 0.53 | 0.61 | 0.61 | 83 | 1010.5 |
| 20260506102221 | 8 | 214 | 8.0 | 14.5 | 0.51 | 0.58 | 0.58 | 83 | 1010.3 |
| 20260506101219 | 8 | 214 | 9.7 | 17.7 | 0.43 | 0.51 | 0.51 | 83 | 1010.3 |
| 20260506100219 | 8 | 214 | 11.3 | 19.3 | 0.38 | 0.46 | 0.46 | 84 | 1010.2 |
| 20260506095220 | 8 | 214 | 12.9 | 24.1 | 0.33 | 0.43 | 0.43 | 84 | 1010.2 |
| 20260506092218 | -17 | 0.0 | 0.0 | 0.05 | 0.10 | 0.08 | 1009.7 | ||
| 20260506091214 | -17 | 0.0 | 0.0 | 0.05 | 0.10 | 0.08 | 1009.3 | ||
| 20260506085120 | 10 | 71 | 0.0 | 0.0 | 0.08 | 0.10 | 0.08 | 82 | 1009.0 |
| 20260506082114 | 10 | 69 | 0.0 | 3.2 | 0.03 | 0.05 | 0.03 | 81 | 1008.6 |
| 20260506081116 | 10 | 67 | 1.6 | 4.8 | 0.03 | 0.05 | 0.03 | 81 | 1008.5 |
| 20260506080118 | 10 | 92 | 0.0 | 4.8 | 0.00 | 0.03 | 0.00 | 81 | 1008.5 |
| 20260506073116 | 10 | 96 | 0.0 | 0.0 | 0.00 | 0.03 | 0.00 | 83 | 1008.3 |
| 20260506072115 | 9 | 96 | 0.0 | 0.0 | 0.00 | 0.03 | 0.00 | 83 | 1008.4 |
| 20260506070115 | 9 | 160 | 1.6 | 3.2 | 0.00 | 0.03 | 0.00 | 84 | 1008.5 |
| 20260506062114 | 8 | 183 | 0.0 | 3.2 | 0.00 | 0.08 | 0.00 | 84 | 1008.8 |
| 20260506061115 | 7 | 69 | 0.0 | 0.0 | 0.00 | 0.08 | 0.00 | 84 | 1008.8 |
| 20260506051111 | 6 | 68 | 1.6 | 4.8 | 0.00 | 0.15 | 0.00 | 84 | 1008.8 |
| 20260506050112 | 6 | 50 | 1.6 | 6.4 | 0.00 | 0.18 | 0.00 | 84 | 1008.7 |
| 20260506045111 | 6 | 50 | 0.0 | 1.6 | 0.00 | 0.18 | 0.00 | 83 | 1008.7 |
| 20260506044112 | 6 | 44 | 3.2 | 6.4 | 0.00 | 0.18 | 0.00 | 83 | 1008.7 |
| 20260506043106 | 6 | 90 | 1.6 | 3.2 | 0.00 | 0.18 | 0.00 | 83 | 1008.6 |
| 20260506042108 | 6 | 90 | 1.6 | 6.4 | 0.00 | 0.18 | 0.00 | 83 | 1008.6 |
| 20260506041107 | 6 | 82 | 0.0 | 0.0 | 0.00 | 0.18 | 0.00 | 83 | 1008.6 |
| 20260506040104 | 6 | 76 | 0.0 | 3.2 | 0.00 | 0.18 | 0.00 | 83 | 1008.7 |
| 20260506035105 | 7 | 76 | 0.0 | 1.6 | 0.00 | 0.18 | 0.00 | 83 | 1008.8 |
| 20260506034102 | 7 | 115 | 0.0 | 1.6 | 0.00 | 0.18 | 0.00 | 83 | 1008.9 |
| 20260506033103 | 7 | 114 | 1.6 | 3.2 | 0.00 | 0.18 | 0.00 | 83 | 1008.9 |
| 20260506032104 | 7 | 115 | 0.0 | 4.8 | 0.00 | 0.18 | 0.00 | 83 | 1009.0 |
| 20260506031102 | 7 | 115 | 0.0 | 0.0 | 0.00 | 0.18 | 0.00 | 83 | 1009.2 |
| 20260506030112 | 7 | 115 | 1.6 | 4.8 | 0.00 | 0.20 | 0.00 | 83 | 1009.3 |
| 20260506025104 | 8 | 114 | 3.2 | 4.8 | 0.00 | 0.20 | 0.00 | 83 | 1009.4 |
| 20260506024102 | 8 | 114 | 1.6 | 3.2 | 0.00 | 0.20 | 0.00 | 83 | 1009.6 |
| 20260506023103 | 8 | 114 | 0.0 | 0.0 | 0.00 | 0.20 | 0.00 | 83 | 1009.6 |
| 20260506022103 | 8 | 114 | 0.0 | 3.2 | 0.00 | 0.20 | 0.00 | 83 | 1009.8 |
| 20260506020056 | 8 | 114 | 1.6 | 3.2 | 0.00 | 0.20 | 0.00 | 82 | 1009.9 |
| 20260506015058 | 8 | 114 | 1.6 | 3.2 | 0.00 | 0.20 | 0.00 | 82 | 1009.8 |
| 20260506014058 | 8 | 114 | 1.6 | 3.2 | 0.00 | 0.20 | 0.00 | 83 | 1010.0 |
| 20260506013056 | 8 | 114 | 0.0 | 0.0 | 0.00 | 0.20 | 0.00 | 83 | 1010.1 |
| 20260506011058 | 8 | 114 | 3.2 | 6.4 | 0.00 | 0.20 | 0.00 | 82 | 1010.3 |
| 20260506005056 | 9 | 114 | 3.2 | 4.8 | 0.00 | 0.20 | 0.00 | 81 | 1010.6 |
| 20260506004052 | 9 | 114 | 3.2 | 4.8 | 0.00 | 0.20 | 0.00 | 82 | 1010.7 |
| 20260506003050 | 9 | 141 | 3.2 | 4.8 | 0.00 | 0.20 | 0.00 | 82 | 1010.9 |
| 20260506002050 | 9 | 141 | 1.6 | 4.8 | 0.00 | 0.20 | 0.00 | 81 | 1011.2 |
| 20260506001052 | 9 | 141 | 1.6 | 4.8 | 0.00 | 0.20 | 0.00 | 81 | 1011.4 |
| 20260506000056 | 9 | 141 | 3.2 | 6.4 | 0.00 | 0.20 | 0.00 | 81 | 1011.5 |
| 20260505235050 | 10 | 141 | 0.0 | 3.2 | 0.00 | 0.20 | 0.00 | 80 | 1011.6 |
| 20260505234051 | 10 | 141 | 0.0 | 3.2 | 0.00 | 0.20 | 0.00 | 79 | 1011.6 |
| 20260505233050 | 10 | 141 | 0.0 | 0.0 | 0.00 | 0.20 | 0.00 | 78 | 1011.7 |
| 20260505231045 | 10 | 141 | 0.0 | 1.6 | 0.00 | 0.20 | 0.00 | 79 | 1011.8 |
| 20260505225044 | 10 | 141 | 0.0 | 0.0 | 0.00 | 0.20 | 0.00 | 78 | 1011.9 |
| 20260505224044 | 10 | 141 | 0.0 | 3.2 | 0.00 | 0.20 | 0.00 | 78 | 1012.0 |
| 20260505223043 | 10 | 141 | 0.0 | 0.0 | 0.00 | 0.20 | 0.00 | 78 | 1012.0 |
| 20260505220044 | 10 | 141 | 0.0 | 3.2 | 0.00 | 0.20 | 0.00 | 77 | 1011.7 |
| 20260505215045 | 10 | 141 | 0.0 | 1.6 | 0.00 | 0.20 | 0.20 | 77 | 1011.8 |
| 20260505213038 | 10 | 141 | 0.0 | 3.2 | 0.00 | 0.20 | 0.20 | 79 | 1011.9 |
| 20260505212037 | 10 | 141 | 4.8 | 6.4 | 0.00 | 0.20 | 0.20 | 79 | 1011.8 |
| 20260505211036 | 10 | 137 | 6.4 | 11.3 | 0.00 | 0.20 | 0.20 | 79 | 1012.0 |
| 20260505210036 | 10 | 138 | 6.4 | 11.3 | 0.00 | 0.20 | 0.20 | 79 | 1012.1 |
| 20260505205035 | 10 | 148 | 6.4 | 11.3 | 0.00 | 0.20 | 0.20 | 79 | 1012.2 |
| 20260505204033 | 10 | 156 | 0.0 | 3.2 | 0.00 | 0.20 | 0.20 | 79 | 1012.3 |
| 20260505203035 | 10 | 155 | 3.2 | 4.8 | 0.00 | 0.20 | 0.20 | 80 | 1012.1 |
| 20260505202035 | 10 | 155 | 1.6 | 3.2 | 0.00 | 0.20 | 0.20 | 80 | 1012.1 |